owner,sensor,date,latitude,longitude,air_pressure(mBar),qcFlag 
ADCP,ioos:station:wmo:42376:1,2011-12-11T20:00:00Z,29.1080,-87.9440,9999.0,11144222 
ADCP,ioos:station:wmo:42376:1,2011-12-11T20:20:00Z,29.1080,-87.9440,9999.0,11144222 
ADCP,ioos:station:wmo:42376:1,2011-12-11T20:40:00Z,29.1080,-87.9440,9999.0,11144222 
ADCP,ioos:station:wmo:42376:1,2011-12-11T21:00:00Z,29.1080,-87.9440,9999.0,11144222 
ADCP,ioos:station:wmo:42376:1,2011-12-11T21:20:00Z,29.1080,-87.9440,9999.0,11144222 
ADCP,ioos:station:wmo:42376:1,2011-12-11T21:40:00Z,29.1080,-87.9440,9999.0,11144222 
ADCP,ioos:station:wmo:42376:1,2011-12-11T22:00:00Z,29.1080,-87.9440,9999.0,11144222 
ADCP,ioos:station:wmo:42376:1,2011-12-11T22:40:00Z,29.1080,-87.9440,9999.0,11144222 
ADCP,ioos:station:wmo:42376:1,2011-12-11T23:00:00Z,29.1080,-87.9440,9999.0,11144222 
ADCP,ioos:station:wmo:42376:1,2011-12-11T23:20:00Z,29.1080,-87.9440,9999.0,11144222 
ADCP,ioos:station:wmo:42376:1,2011-12-11T23:40:00Z,29.1080,-87.9440,9999.0,11144222 
ADCP,ioos:station:wmo:42376:1,2011-12-12T00:00:00Z,29.1080,-87.9440,9999.0,11144222 
ADCP,ioos:station:wmo:42376:1,2011-12-12T00:20:00Z,29.1080,-87.9440,9999.0,11144222 
ADCP,ioos:station:wmo:42376:1,2011-12-12T01:00:00Z,29.1080,-87.9440,9999.0,11144222 
ADCP,ioos:station:wmo:42376:1,2011-12-12T01:20:00Z,29.1080,-87.9440,9999.0,11144222 
ADCP,ioos:station:wmo:42376:1,2011-12-12T01:40:00Z,29.1080,-87.9440,9999.0,11144222 
ADCP,ioos:station:wmo:42376:1,2011-12-12T02:20:00Z,29.1080,-87.9440,9999.0,11144222 
ADCP,ioos:station:wmo:42376:1,2011-12-12T02:40:00Z,29.1080,-87.9440,9999.0,11144222 
ADCP,ioos:station:wmo:42376:1,2011-12-12T03:20:00Z,29.1080,-87.9440,9999.0,11144222 
ADCP,ioos:station:wmo:42376:1,2011-12-12T03:40:00Z,29.1080,-87.9440,9999.0,11144222 
ADCP,ioos:station:wmo:42376:1,2011-12-12T04:00:00Z,29.1080,-87.9440,9999.0,11144222 
ADCP,ioos:station:wmo:42376:1,2011-12-12T04:20:00Z,29.1080,-87.9440,9999.0,11144222 
ADCP,ioos:station:wmo:42376:1,2011-12-12T04:40:00Z,29.1080,-87.9440,9999.0,11144222 
ADCP,ioos:station:wmo:42376:1,2011-12-12T05:00:00Z,29.1080,-87.9440,9999.0,11144222 
ADCP,ioos:station:wmo:42376:1,2011-12-12T05:20:00Z,29.1080,-87.9440,9999.0,11144222 
ADCP,ioos:station:wmo:42376:1,2011-12-12T05:40:00Z,29.1080,-87.9440,9999.0,11144222 
ADCP,ioos:station:wmo:42376:1,2011-12-12T06:00:00Z,29.1080,-87.9440,9999.0,11144222 
ADCP,ioos:station:wmo:42376:1,2011-12-12T06:20:00Z,29.1080,-87.9440,9999.0,11144222 
ADCP,ioos:station:wmo:42376:1,2011-12-12T07:00:00Z,29.1080,-87.9440,9999.0,11144222 
ADCP,ioos:station:wmo:42376:1,2011-12-12T07:20:00Z,29.1080,-87.9440,9999.0,11144222 
ADCP,ioos:station:wmo:42376:1,2011-12-12T07:40:00Z,29.1080,-87.9440,9999.0,11144222 
ADCP,ioos:station:wmo:42376:1,2011-12-12T08:00:00Z,29.1080,-87.9440,9999.0,11144222 
ADCP,ioos:station:wmo:42376:1,2011-12-12T08:20:00Z,29.1080,-87.9440,9999.0,11144222 
ADCP,ioos:station:wmo:42376:1,2011-12-12T08:40:00Z,29.1080,-87.9440,9999.0,11144222 
ADCP,ioos:station:wmo:42376:1,2011-12-12T09:00:00Z,29.1080,-87.9440,9999.0,11144222 
ADCP,ioos:station:wmo:42376:1,2011-12-12T09:20:00Z,29.1080,-87.9440,9999.0,11144222 
ADCP,ioos:station:wmo:42376:1,2011-12-12T09:40:00Z,29.1080,-87.9440,9999.0,11144222 
ADCP,ioos:station:wmo:42376:1,2011-12-12T10:00:00Z,29.1080,-87.9440,9999.0,11144222 
ADCP,ioos:station:wmo:42376:1,2011-12-12T10:20:00Z,29.1080,-87.9440,9999.0,11144222 
ADCP,ioos:station:wmo:42376:1,2011-12-12T11:00:00Z,29.1080,-87.9440,9999.0,11144222 
ADCP,ioos:station:wmo:42376:1,2011-12-12T11:20:00Z,29.1080,-87.9440,9999.0,11144222 
ADCP,ioos:station:wmo:42376:1,2011-12-12T11:40:00Z,29.1080,-87.9440,9999.0,11144222 
ADCP,ioos:station:wmo:42376:1,2011-12-12T12:00:00Z,29.1080,-87.9440,9999.0,11144222 
ADCP,ioos:station:wmo:42376:1,2011-12-12T12:20:00Z,29.1080,-87.9440,9999.0,11144222 
ADCP,ioos:station:wmo:42376:1,2011-12-12T12:40:00Z,29.1080,-87.9440,9999.0,11144222 
ADCP,ioos:station:wmo:42376:1,2011-12-12T13:00:00Z,29.1080,-87.9440,9999.0,11144222 
ADCP,ioos:station:wmo:42376:1,2011-12-12T13:20:00Z,29.1080,-87.9440,9999.0,11144222 
ADCP,ioos:station:wmo:42376:1,2011-12-12T14:00:00Z,29.1080,-87.9440,9999.0,11144222 
ADCP,ioos:station:wmo:42376:1,2011-12-12T14:20:00Z,29.1080,-87.9440,9999.0,11144222 
ADCP,ioos:station:wmo:42376:1,2011-12-12T14:40:00Z,29.1080,-87.9440,9999.0,11144222 
ADCP,ioos:station:wmo:42376:1,2011-12-12T15:00:00Z,29.1080,-87.9440,9999.0,11144222 
ADCP,ioos:station:wmo:42376:1,2011-12-12T15:20:00Z,29.1080,-87.9440,9999.0,11144222 
ADCP,ioos:station:wmo:42376:1,2011-12-12T16:00:00Z,29.1080,-87.9440,9999.0,11144222 
ADCP,ioos:station:wmo:42376:1,2011-12-12T16:20:00Z,29.1080,-87.9440,9999.0,11144222 
ADCP,ioos:station:wmo:42376:1,2011-12-12T16:40:00Z,29.1080,-87.9440,9999.0,11144222 
ADCP,ioos:station:wmo:42376:1,2011-12-12T17:00:00Z,29.1080,-87.9440,9999.0,11144222 
ADCP,ioos:station:wmo:42376:1,2011-12-12T17:20:00Z,29.1080,-87.9440,9999.0,11144222 
ADCP,ioos:station:wmo:42376:1,2011-12-12T17:40:00Z,29.1080,-87.9440,9999.0,11144222 
ADCP,ioos:station:wmo:42376:1,2011-12-12T18:00:00Z,29.1080,-87.9440,9999.0,11144222 
ADCP,ioos:station:wmo:42376:1,2011-12-12T18:20:00Z,29.1080,-87.9440,9999.0,11144222 
ADCP,ioos:station:wmo:42376:1,2011-12-12T18:40:00Z,29.1080,-87.9440,9999.0,11144222 
ADCP,ioos:station:wmo:42376:1,2011-12-12T19:00:00Z,29.1080,-87.9440,9999.0,11144222 
ADCP,ioos:station:wmo:42376:1,2011-12-12T19:20:00Z,29.1080,-87.9440,9999.0,11144222 
ADCP,ioos:station:wmo:42376:1,2011-12-12T19:40:00Z,29.1080,-87.9440,1024.0,11111222 
ADCP,ioos:station:wmo:42376:1,2011-12-12T20:00:00Z,29.1080,-87.9440,1024.0,11111222 
ADCP,ioos:station:wmo:42376:1,2011-12-12T20:20:00Z,29.1080,-87.9440,1024.0,11111222 
ADCP,ioos:station:wmo:42376:1,2011-12-12T20:40:00Z,29.1080,-87.9440,1024.0,11111222 
ADCP,ioos:station:wmo:42376:1,2011-12-12T21:00:00Z,29.1080,-87.9440,1024.0,11111222 
ADCP,ioos:station:wmo:42376:1,2011-12-12T21:20:00Z,29.1080,-87.9440,1024.0,11111222 
ADCP,ioos:station:wmo:42376:1,2011-12-12T21:40:00Z,29.1080,-87.9440,1024.0,11111222 
ADCP,ioos:station:wmo:42376:1,2011-12-12T22:00:00Z,29.1080,-87.9440,1024.0,11111222 
ADCP,ioos:station:wmo:42376:1,2011-12-12T23:00:00Z,29.1080,-87.9440,1024.0,11111222 
ADCP,ioos:station:wmo:42376:1,2011-12-12T23:20:00Z,29.1080,-87.9440,1024.0,11111222 
ADCP,ioos:station:wmo:42376:1,2011-12-13T00:00:00Z,29.1080,-87.9440,1024.0,11111222 
ADCP,ioos:station:wmo:42376:1,2011-12-13T00:20:00Z,29.1080,-87.9440,1024.0,11111222 
ADCP,ioos:station:wmo:42376:1,2011-12-13T00:40:00Z,29.1080,-87.9440,1024.0,11111222 
ADCP,ioos:station:wmo:42376:1,2011-12-13T01:00:00Z,29.1080,-87.9440,1024.0,11111222 
ADCP,ioos:station:wmo:42376:1,2011-12-13T01:40:00Z,29.1080,-87.9440,1024.0,11111222 
ADCP,ioos:station:wmo:42376:1,2011-12-13T02:00:00Z,29.1080,-87.9440,1024.0,11111222 
ADCP,ioos:station:wmo:42376:1,2011-12-13T02:20:00Z,29.1080,-87.9440,1024.0,11111222 
ADCP,ioos:station:wmo:42376:1,2011-12-13T03:20:00Z,29.1080,-87.9440,1024.0,11111222 
ADCP,ioos:station:wmo:42376:1,2011-12-13T03:40:00Z,29.1080,-87.9440,1024.0,11111222 
ADCP,ioos:station:wmo:42376:1,2011-12-13T04:00:00Z,29.1080,-87.9440,1024.0,11111222 
ADCP,ioos:station:wmo:42376:1,2011-12-13T04:20:00Z,29.1080,-87.9440,1024.0,11111222 
ADCP,ioos:station:wmo:42376:1,2011-12-13T05:20:00Z,29.1080,-87.9440,1025.9,11111222 
ADCP,ioos:station:wmo:42376:1,2011-12-13T05:40:00Z,29.1080,-87.9440,1026.0,11111222 
ADCP,ioos:station:wmo:42376:1,2011-12-13T06:00:00Z,29.1080,-87.9440,1025.9,11111222 
ADCP,ioos:station:wmo:42376:1,2011-12-13T06:40:00Z,29.1080,-87.9440,1025.8,11111222 
ADCP,ioos:station:wmo:42376:1,2011-12-13T07:00:00Z,29.1080,-87.9440,1025.7,11111222 
ADCP,ioos:station:wmo:42376:1,2011-12-13T07:20:00Z,29.1080,-87.9440,1025.7,11111222 
ADCP,ioos:station:wmo:42376:1,2011-12-13T07:40:00Z,29.1080,-87.9440,1025.7,11111222 
ADCP,ioos:station:wmo:42376:1,2011-12-13T08:00:00Z,29.1080,-87.9440,1025.8,11111222 
ADCP,ioos:station:wmo:42376:1,2011-12-13T08:20:00Z,29.1080,-87.9440,1025.8,11111222 
ADCP,ioos:station:wmo:42376:1,2011-12-13T10:00:00Z,29.1080,-87.9440,1025.6,11111222 
ADCP,ioos:station:wmo:42376:1,2011-12-13T10:20:00Z,29.1080,-87.9440,1025.6,11111222 
ADCP,ioos:station:wmo:42376:1,2011-12-13T10:40:00Z,29.1080,-87.9440,1025.9,11111222 
ADCP,ioos:station:wmo:42376:1,2011-12-13T11:00:00Z,29.1080,-87.9440,1026.3,11111222 
ADCP,ioos:station:wmo:42376:1,2011-12-13T11:20:00Z,29.1080,-87.9440,1025.9,11111222 
ADCP,ioos:station:wmo:42376:1,2011-12-13T11:40:00Z,29.1080,-87.9440,1026.7,11111222 
ADCP,ioos:station:wmo:42376:1,2011-12-13T12:00:00Z,29.1080,-87.9440,1026.7,11111222 
ADCP,ioos:station:wmo:42376:1,2011-12-13T12:40:00Z,29.1080,-87.9440,1026.8,11111222 
ADCP,ioos:station:wmo:42376:1,2011-12-13T13:00:00Z,29.1080,-87.9440,1027.1,11111222 
ADCP,ioos:station:wmo:42376:1,2011-12-13T13:20:00Z,29.1080,-87.9440,1027.1,11111222 
ADCP,ioos:station:wmo:42376:1,2011-12-13T14:00:00Z,29.1080,-87.9440,1027.8,11111222 
ADCP,ioos:station:wmo:42376:1,2011-12-13T14:20:00Z,29.1080,-87.9440,1027.8,11111222 
ADCP,ioos:station:wmo:42376:1,2011-12-13T14:40:00Z,29.1080,-87.9440,1027.8,11111222 
ADCP,ioos:station:wmo:42376:1,2011-12-13T15:00:00Z,29.1080,-87.9440,1027.8,11111222 
ADCP,ioos:station:wmo:42376:1,2011-12-13T15:20:00Z,29.1080,-87.9440,1027.8,11111222 
ADCP,ioos:station:wmo:42376:1,2011-12-13T15:40:00Z,29.1080,-87.9440,1028.2,11111222 
ADCP,ioos:station:wmo:42376:1,2011-12-13T16:00:00Z,29.1080,-87.9440,1027.6,11111222 
ADCP,ioos:station:wmo:42376:1,2011-12-13T16:40:00Z,29.1080,-87.9440,1027.3,11111222 
ADCP,ioos:station:wmo:42376:1,2011-12-13T17:00:00Z,29.1080,-87.9440,1027.0,11111222 
ADCP,ioos:station:wmo:42376:1,2011-12-13T17:20:00Z,29.1080,-87.9440,1027.0,11111222 
ADCP,ioos:station:wmo:42376:1,2011-12-13T17:40:00Z,29.1080,-87.9440,1027.0,11111222 
ADCP,ioos:station:wmo:42376:1,2011-12-13T18:00:00Z,29.1080,-87.9440,1027.0,11111222 
ADCP,ioos:station:wmo:42376:1,2011-12-13T18:20:00Z,29.1080,-87.9440,1027.0,11111222 
ADCP,ioos:station:wmo:42376:1,2011-12-13T18:40:00Z,29.1080,-87.9440,1026.0,11111222 
ADCP,ioos:station:wmo:42376:1,2011-12-13T19:00:00Z,29.1080,-87.9440,1025.8,11111222 
ADCP,ioos:station:wmo:42376:1,2011-12-13T19:20:00Z,29.1080,-87.9440,1025.8,11111222 
ADCP,ioos:station:wmo:42376:1,2011-12-13T19:40:00Z,29.1080,-87.9440,1025.8,11111222 
ADCP,ioos:station:wmo:42376:1,2011-12-13T20:00:00Z,29.1080,-87.9440,1025.8,11111222 
ADCP,ioos:station:wmo:42376:1,2011-12-13T20:20:00Z,29.1080,-87.9440,1025.8,11111222 
ADCP,ioos:station:wmo:42376:1,2011-12-13T20:40:00Z,29.1080,-87.9440,1025.9,11111222 
ADCP,ioos:station:wmo:42376:1,2011-12-13T21:00:00Z,29.1080,-87.9440,1025.7,11111222 
ADCP,ioos:station:wmo:42376:1,2011-12-13T21:40:00Z,29.1080,-87.9440,1025.8,11111222 
ADCP,ioos:station:wmo:42376:1,2011-12-13T22:00:00Z,29.1080,-87.9440,1025.9,11111222 
ADCP,ioos:station:wmo:42376:1,2011-12-13T22:20:00Z,29.1080,-87.9440,1025.9,11111222 
ADCP,ioos:station:wmo:42376:1,2011-12-13T22:40:00Z,29.1080,-87.9440,1026.0,11111222 
ADCP,ioos:station:wmo:42376:1,2011-12-13T23:20:00Z,29.1080,-87.9440,1026.1,11111222 
ADCP,ioos:station:wmo:42376:1,2011-12-13T23:40:00Z,29.1080,-87.9440,1026.0,11111222 
ADCP,ioos:station:wmo:42376:1,2011-12-14T00:00:00Z,29.1080,-87.9440,1026.0,11111222 
ADCP,ioos:station:wmo:42376:1,2011-12-14T00:20:00Z,29.1080,-87.9440,1026.0,11111222 
ADCP,ioos:station:wmo:42376:1,2011-12-14T00:40:00Z,29.1080,-87.9440,1026.2,11111222 
ADCP,ioos:station:wmo:42376:1,2011-12-14T01:00:00Z,29.1080,-87.9440,1026.2,11111222 
ADCP,ioos:station:wmo:42376:1,2011-12-14T01:20:00Z,29.1080,-87.9440,1026.2,11111222 
ADCP,ioos:station:wmo:42376:1,2011-12-14T01:40:00Z,29.1080,-87.9440,1026.4,11111222 
ADCP,ioos:station:wmo:42376:1,2011-12-14T02:00:00Z,29.1080,-87.9440,1026.4,11111222 
ADCP,ioos:station:wmo:42376:1,2011-12-14T02:20:00Z,29.1080,-87.9440,1026.4,11111222 
ADCP,ioos:station:wmo:42376:1,2011-12-14T03:00:00Z,29.1080,-87.9440,1026.2,11111222 
ADCP,ioos:station:wmo:42376:1,2011-12-14T03:20:00Z,29.1080,-87.9440,1026.2,11111222 
ADCP,ioos:station:wmo:42376:1,2011-12-14T04:00:00Z,29.1080,-87.9440,1026.2,11111222 
ADCP,ioos:station:wmo:42376:1,2011-12-14T04:20:00Z,29.1080,-87.9440,1026.2,11111222 
ADCP,ioos:station:wmo:42376:1,2011-12-14T05:20:00Z,29.1080,-87.9440,1026.2,11111222 
ADCP,ioos:station:wmo:42376:1,2011-12-14T06:00:00Z,29.1080,-87.9440,1026.2,11111222 
ADCP,ioos:station:wmo:42376:1,2011-12-14T06:20:00Z,29.1080,-87.9440,1026.2,11111222 
ADCP,ioos:station:wmo:42376:1,2011-12-14T07:00:00Z,29.1080,-87.9440,1026.2,11111222 
ADCP,ioos:station:wmo:42376:1,2011-12-14T08:00:00Z,29.1080,-87.9440,1026.2,11111222 
ADCP,ioos:station:wmo:42376:1,2011-12-14T08:20:00Z,29.1080,-87.9440,1026.2,11111222 
ADCP,ioos:station:wmo:42376:1,2011-12-14T09:00:00Z,29.1080,-87.9440,1026.2,11111222 
ADCP,ioos:station:wmo:42376:1,2011-12-14T09:20:00Z,29.1080,-87.9440,1026.2,11111222 
ADCP,ioos:station:wmo:42376:1,2011-12-14T09:40:00Z,29.1080,-87.9440,1026.2,11111222 
ADCP,ioos:station:wmo:42376:1,2011-12-14T10:20:00Z,29.1080,-87.9440,1026.2,11111222 
ADCP,ioos:station:wmo:42376:1,2011-12-14T11:00:00Z,29.1080,-87.9440,1026.2,11111222 
ADCP,ioos:station:wmo:42376:1,2011-12-14T11:20:00Z,29.1080,-87.9440,1026.2,11111222 
ADCP,ioos:station:wmo:42376:1,2011-12-14T11:40:00Z,29.1080,-87.9440,1026.2,11111222 
ADCP,ioos:station:wmo:42376:1,2011-12-14T12:00:00Z,29.1080,-87.9440,1026.2,11111222 
ADCP,ioos:station:wmo:42376:1,2011-12-14T12:20:00Z,29.1080,-87.9440,1026.2,11111222 
ADCP,ioos:station:wmo:42376:1,2011-12-14T12:40:00Z,29.1080,-87.9440,1026.2,11111222 
ADCP,ioos:station:wmo:42376:1,2011-12-14T13:00:00Z,29.1080,-87.9440,1026.2,11111222 
ADCP,ioos:station:wmo:42376:1,2011-12-14T13:40:00Z,29.1080,-87.9440,1026.2,11111222 
ADCP,ioos:station:wmo:42376:1,2011-12-14T14:00:00Z,29.1080,-87.9440,1026.2,11111222 
ADCP,ioos:station:wmo:42376:1,2011-12-14T14:20:00Z,29.1080,-87.9440,1026.2,11111222 
ADCP,ioos:station:wmo:42376:1,2011-12-14T15:00:00Z,29.1080,-87.9440,1026.2,11111222 
ADCP,ioos:station:wmo:42376:1,2011-12-14T15:20:00Z,29.1080,-87.9440,1026.2,11111222 
ADCP,ioos:station:wmo:42376:1,2011-12-14T15:40:00Z,29.1080,-87.9440,1026.2,11111222 
ADCP,ioos:station:wmo:42376:1,2011-12-14T16:00:00Z,29.1080,-87.9440,1026.2,11111222 
ADCP,ioos:station:wmo:42376:1,2011-12-14T16:20:00Z,29.1080,-87.9440,1026.2,11111222 
ADCP,ioos:station:wmo:42376:1,2011-12-14T16:40:00Z,29.1080,-87.9440,1026.2,11111222 
ADCP,ioos:station:wmo:42376:1,2011-12-14T17:00:00Z,29.1080,-87.9440,1026.2,11111222 
ADCP,ioos:station:wmo:42376:1,2011-12-14T17:20:00Z,29.1080,-87.9440,1022.9,11111222 
ADCP,ioos:station:wmo:42376:1,2011-12-14T17:40:00Z,29.1080,-87.9440,1023.2,11111222 
ADCP,ioos:station:wmo:42376:1,2011-12-14T18:00:00Z,29.1080,-87.9440,1021.4,11111222 
ADCP,ioos:station:wmo:42376:1,2011-12-14T18:20:00Z,29.1080,-87.9440,1021.4,11111222 
ADCP,ioos:station:wmo:42376:1,2011-12-14T18:40:00Z,29.1080,-87.9440,1021.1,11111222 
ADCP,ioos:station:wmo:42376:1,2011-12-14T19:00:00Z,29.1080,-87.9440,1020.8,11111222 
ADCP,ioos:station:wmo:42376:1,2011-12-14T19:20:00Z,29.1080,-87.9440,1020.8,11111222 
ADCP,ioos:station:wmo:42376:1,2011-12-14T20:00:00Z,29.1080,-87.9440,1020.6,11111222 
ADCP,ioos:station:wmo:42376:1,2011-12-14T20:40:00Z,29.1080,-87.9440,1020.7,11111222 
ADCP,ioos:station:wmo:42376:1,2011-12-14T21:00:00Z,29.1080,-87.9440,1020.6,11111222 
ADCP,ioos:station:wmo:42376:1,2011-12-14T21:20:00Z,29.1080,-87.9440,1020.6,11111222 
ADCP,ioos:station:wmo:42376:1,2011-12-14T21:40:00Z,29.1080,-87.9440,1020.6,11111222 
ADCP,ioos:station:wmo:42376:1,2011-12-14T22:00:00Z,29.1080,-87.9440,1020.6,11111222 
ADCP,ioos:station:wmo:42376:1,2011-12-14T22:20:00Z,29.1080,-87.9440,1020.6,11111222 
ADCP,ioos:station:wmo:42376:1,2011-12-14T23:00:00Z,29.1080,-87.9440,1020.6,11111222 
ADCP,ioos:station:wmo:42376:1,2011-12-14T23:20:00Z,29.1080,-87.9440,1020.6,11111222 
ADCP,ioos:station:wmo:42376:1,2011-12-15T00:00:00Z,29.1080,-87.9440,1020.6,11111222 
ADCP,ioos:station:wmo:42376:1,2011-12-15T00:20:00Z,29.1080,-87.9440,1020.6,11111222 
ADCP,ioos:station:wmo:42376:1,2011-12-15T00:40:00Z,29.1080,-87.9440,1020.6,11111222 
ADCP,ioos:station:wmo:42376:1,2011-12-15T01:00:00Z,29.1080,-87.9440,1020.6,11111222 
ADCP,ioos:station:wmo:42376:1,2011-12-15T01:20:00Z,29.1080,-87.9440,1020.6,11111222 
ADCP,ioos:station:wmo:42376:1,2011-12-15T01:40:00Z,29.1080,-87.9440,1020.6,11111222 
ADCP,ioos:station:wmo:42376:1,2011-12-15T02:00:00Z,29.1080,-87.9440,1020.6,11111222 
ADCP,ioos:station:wmo:42376:1,2011-12-15T02:20:00Z,29.1080,-87.9440,1020.6,11111222 
ADCP,ioos:station:wmo:42376:1,2011-12-15T02:40:00Z,29.1080,-87.9440,1020.6,11111222 
ADCP,ioos:station:wmo:42376:1,2011-12-15T03:20:00Z,29.1080,-87.9440,1020.6,11111222 
ADCP,ioos:station:wmo:42376:1,2011-12-15T04:00:00Z,29.1080,-87.9440,1020.6,11111222 
ADCP,ioos:station:wmo:42376:1,2011-12-15T04:20:00Z,29.1080,-87.9440,1020.6,11111222 
ADCP,ioos:station:wmo:42376:1,2011-12-15T05:00:00Z,29.1080,-87.9440,1020.6,11111222 
ADCP,ioos:station:wmo:42376:1,2011-12-15T05:20:00Z,29.1080,-87.9440,1020.6,11111222 
ADCP,ioos:station:wmo:42376:1,2011-12-15T05:40:00Z,29.1080,-87.9440,1020.6,11111222 
ADCP,ioos:station:wmo:42376:1,2011-12-15T06:00:00Z,29.1080,-87.9440,1020.6,11111222 
ADCP,ioos:station:wmo:42376:1,2011-12-15T06:20:00Z,29.1080,-87.9440,1020.6,11111222 
ADCP,ioos:station:wmo:42376:1,2011-12-15T07:00:00Z,29.1080,-87.9440,1020.6,11111222 
ADCP,ioos:station:wmo:42376:1,2011-12-15T07:20:00Z,29.1080,-87.9440,1020.6,11111222 
ADCP,ioos:station:wmo:42376:1,2011-12-15T08:00:00Z,29.1080,-87.9440,1020.6,11111222 
ADCP,ioos:station:wmo:42376:1,2011-12-15T08:20:00Z,29.1080,-87.9440,1020.6,11111222 
ADCP,ioos:station:wmo:42376:1,2011-12-15T08:40:00Z,29.1080,-87.9440,1020.6,11111222 
ADCP,ioos:station:wmo:42376:1,2011-12-15T09:00:00Z,29.1080,-87.9440,1020.6,11111222 
ADCP,ioos:station:wmo:42376:1,2011-12-15T09:20:00Z,29.1080,-87.9440,1020.6,11111222 
ADCP,ioos:station:wmo:42376:1,2011-12-15T09:40:00Z,29.1080,-87.9440,1020.6,11111222 
ADCP,ioos:station:wmo:42376:1,2011-12-15T10:00:00Z,29.1080,-87.9440,1020.6,11111222 
ADCP,ioos:station:wmo:42376:1,2011-12-15T10:20:00Z,29.1080,-87.9440,1020.6,11111222 
ADCP,ioos:station:wmo:42376:1,2011-12-15T11:00:00Z,29.1080,-87.9440,1020.6,11111222 
ADCP,ioos:station:wmo:42376:1,2011-12-15T11:20:00Z,29.1080,-87.9440,1021.6,11111222 
ADCP,ioos:station:wmo:42376:1,2011-12-15T11:40:00Z,29.1080,-87.9440,1019.4,11111222 
ADCP,ioos:station:wmo:42376:1,2011-12-15T12:00:00Z,29.1080,-87.9440,1020.0,11111222 
ADCP,ioos:station:wmo:42376:1,2011-12-15T12:20:00Z,29.1080,-87.9440,1020.0,11111222 
ADCP,ioos:station:wmo:42376:1,2011-12-15T12:40:00Z,29.1080,-87.9440,1019.9,11111222 
ADCP,ioos:station:wmo:42376:1,2011-12-15T13:00:00Z,29.1080,-87.9440,1020.1,11111222 
ADCP,ioos:station:wmo:42376:1,2011-12-15T13:40:00Z,29.1080,-87.9440,1020.5,11111222 
ADCP,ioos:station:wmo:42376:1,2011-12-15T14:00:00Z,29.1080,-87.9440,1020.9,11111222 
ADCP,ioos:station:wmo:42376:1,2011-12-15T14:20:00Z,29.1080,-87.9440,1020.9,11111222 
ADCP,ioos:station:wmo:42376:1,2011-12-15T14:40:00Z,29.1080,-87.9440,1020.6,11111222 
ADCP,ioos:station:wmo:42376:1,2011-12-15T15:00:00Z,29.1080,-87.9440,1020.8,11111222 
ADCP,ioos:station:wmo:42376:1,2011-12-15T15:20:00Z,29.1080,-87.9440,1020.8,11111222 
ADCP,ioos:station:wmo:42376:1,2011-12-15T16:00:00Z,29.1080,-87.9440,1020.5,11111222 
ADCP,ioos:station:wmo:42376:1,2011-12-15T16:20:00Z,29.1080,-87.9440,1020.5,11111222 
ADCP,ioos:station:wmo:42376:1,2011-12-15T17:00:00Z,29.1080,-87.9440,1019.9,11111222 
ADCP,ioos:station:wmo:42376:1,2011-12-15T17:20:00Z,29.1080,-87.9440,1019.9,11111222 
ADCP,ioos:station:wmo:42376:1,2011-12-15T18:00:00Z,29.1080,-87.9440,1019.1,11111222 
ADCP,ioos:station:wmo:42376:1,2011-12-15T18:20:00Z,29.1080,-87.9440,1019.1,11111222 
ADCP,ioos:station:wmo:42376:1,2011-12-15T18:40:00Z,29.1080,-87.9440,1018.8,11111222 
ADCP,ioos:station:wmo:42376:1,2011-12-15T19:00:00Z,29.1080,-87.9440,1018.6,11111222 
ADCP,ioos:station:wmo:42376:1,2011-12-15T19:20:00Z,29.1080,-87.9440,1018.6,11111222 
ADCP,ioos:station:wmo:42376:1,2011-12-15T19:40:00Z,29.1080,-87.9440,1018.5,11111222 
ADCP,ioos:station:wmo:42376:1,2011-12-15T20:00:00Z,29.1080,-87.9440,1018.5,11111222 
ADCP,ioos:station:wmo:42376:1,2011-12-15T20:20:00Z,29.1080,-87.9440,1018.5,11111222 
ADCP,ioos:station:wmo:42376:1,2011-12-15T21:00:00Z,29.1080,-87.9440,1018.5,11111222 
ADCP,ioos:station:wmo:42376:1,2011-12-15T21:20:00Z,29.1080,-87.9440,1018.5,11111222 
ADCP,ioos:station:wmo:42376:1,2011-12-15T21:40:00Z,29.1080,-87.9440,1018.5,11111222 
ADCP,ioos:station:wmo:42376:1,2011-12-15T22:00:00Z,29.1080,-87.9440,1018.7,11111222 
ADCP,ioos:station:wmo:42376:1,2011-12-15T22:20:00Z,29.1080,-87.9440,1018.7,11111222 
ADCP,ioos:station:wmo:42376:1,2011-12-15T22:40:00Z,29.1080,-87.9440,1019.0,11111222 
ADCP,ioos:station:wmo:42376:1,2011-12-15T23:20:00Z,29.1080,-87.9440,1019.2,11111222 
ADCP,ioos:station:wmo:42376:1,2011-12-15T23:40:00Z,29.1080,-87.9440,1019.4,11111222 
ADCP,ioos:station:wmo:42376:1,2011-12-16T00:00:00Z,29.1080,-87.9440,1019.5,11111222 
ADCP,ioos:station:wmo:42376:1,2011-12-16T00:20:00Z,29.1080,-87.9440,1019.5,11111222 
ADCP,ioos:station:wmo:42376:1,2011-12-16T00:40:00Z,29.1080,-87.9440,1019.7,11111222 
ADCP,ioos:station:wmo:42376:1,2011-12-16T01:00:00Z,29.1080,-87.9440,1020.1,11111222 
ADCP,ioos:station:wmo:42376:1,2011-12-16T01:20:00Z,29.1080,-87.9440,1020.1,11111222 
ADCP,ioos:station:wmo:42376:1,2011-12-16T02:00:00Z,29.1080,-87.9440,1020.4,11111222 
ADCP,ioos:station:wmo:42376:1,2011-12-16T02:20:00Z,29.1080,-87.9440,1020.4,11111222 
ADCP,ioos:station:wmo:42376:1,2011-12-16T03:00:00Z,29.1080,-87.9440,1020.2,11111222 
ADCP,ioos:station:wmo:42376:1,2011-12-16T03:20:00Z,29.1080,-87.9440,1020.2,11111222 
ADCP,ioos:station:wmo:42376:1,2011-12-16T04:00:00Z,29.1080,-87.9440,1020.2,11111222 
ADCP,ioos:station:wmo:42376:1,2011-12-16T04:20:00Z,29.1080,-87.9440,1020.2,11111222 
ADCP,ioos:station:wmo:42376:1,2011-12-16T04:40:00Z,29.1080,-87.9440,1020.0,11111222 
ADCP,ioos:station:wmo:42376:1,2011-12-16T05:00:00Z,29.1080,-87.9440,1019.8,11111222 
ADCP,ioos:station:wmo:42376:1,2011-12-16T05:20:00Z,29.1080,-87.9440,1019.8,11111222 
ADCP,ioos:station:wmo:42376:1,2011-12-16T06:00:00Z,29.1080,-87.9440,1019.4,11111222 
ADCP,ioos:station:wmo:42376:1,2011-12-16T06:20:00Z,29.1080,-87.9440,1019.4,11111222 
ADCP,ioos:station:wmo:42376:1,2011-12-16T07:00:00Z,29.1080,-87.9440,1019.4,11111222 
ADCP,ioos:station:wmo:42376:1,2011-12-16T07:20:00Z,29.1080,-87.9440,1019.4,11111222 
ADCP,ioos:station:wmo:42376:1,2011-12-16T08:00:00Z,29.1080,-87.9440,1019.0,11111222 
ADCP,ioos:station:wmo:42376:1,2011-12-16T08:20:00Z,29.1080,-87.9440,1019.0,11111222 
ADCP,ioos:station:wmo:42376:1,2011-12-16T08:40:00Z,29.1080,-87.9440,1019.0,11111222 
ADCP,ioos:station:wmo:42376:1,2011-12-16T09:00:00Z,29.1080,-87.9440,1018.9,11111222 
ADCP,ioos:station:wmo:42376:1,2011-12-16T09:20:00Z,29.1080,-87.9440,1018.9,11111222 
ADCP,ioos:station:wmo:42376:1,2011-12-16T09:40:00Z,29.1080,-87.9440,1018.7,11111222 
ADCP,ioos:station:wmo:42376:1,2011-12-16T10:00:00Z,29.1080,-87.9440,1018.6,11111222 
ADCP,ioos:station:wmo:42376:1,2011-12-16T10:20:00Z,29.1080,-87.9440,1018.6,11111222 
ADCP,ioos:station:wmo:42376:1,2011-12-16T11:00:00Z,29.1080,-87.9440,1019.1,11111222 
ADCP,ioos:station:wmo:42376:1,2011-12-16T11:20:00Z,29.1080,-87.9440,1019.1,11111222 
ADCP,ioos:station:wmo:42376:1,2011-12-16T12:00:00Z,29.1080,-87.9440,1019.5,11111222 
ADCP,ioos:station:wmo:42376:1,2011-12-16T12:20:00Z,29.1080,-87.9440,1019.5,11111222 
ADCP,ioos:station:wmo:42376:1,2011-12-16T12:40:00Z,29.1080,-87.9440,1019.8,11111222 
ADCP,ioos:station:wmo:42376:1,2011-12-16T13:00:00Z,29.1080,-87.9440,1020.3,11111222 
ADCP,ioos:station:wmo:42376:1,2011-12-16T13:20:00Z,29.1080,-87.9440,1020.3,11111222 
ADCP,ioos:station:wmo:42376:1,2011-12-16T13:40:00Z,29.1080,-87.9440,1020.7,11111222 
ADCP,ioos:station:wmo:42376:1,2011-12-16T14:00:00Z,29.1080,-87.9440,1021.1,11111222 
ADCP,ioos:station:wmo:42376:1,2011-12-16T14:20:00Z,29.1080,-87.9440,1021.1,11111222 